Find WGS SV-7

NORAD ID: 40746 Int'l Des: 2015-036 Owner: AFSMC Country: US operational
HEOCIRCULARGSOGEO

リアルタイム位置

3D地球を読み込み中...

WGS SV-7について

説明を読み込み中...

次回通過

Passes for default location (London). Set your location on the main map for personalized predictions.

高度履歴

Loading altitude history...

軌道要素

1 40746U 15036A 26121.73371491 .00000023 00000-0 00000+0 0 9997
2 40746 0.0129 283.3742 0000376 204.3105 171.1089 1.00270241 39405
Epoch: May 1, 2026 • Age: 11 hours

現在のステータス

高度 35785.1 km
速度 3.07 km/s
衛星直下点 -0.00°S, 174.99°E
打ち上げ日 Jul 24, 2015
運用期間 10.7 years
タイプ other

技術仕様

分類 Payload
質量 5900.00 kg
乾燥質量 3300.00 kg
総質量 5900.00 kg
長さ 6.00 m
直径 3.00 m
スパン 40.90 m
形状 Box + 2 pan
製造者 BOES
バスタイプ BSS-702HP
フェーズステータス In Orbit
所有者/国 AFSMC/US

Most Searched